Weather History for EINN - May, 2013

Change the Weather History Date:

Wednesday, May 15, 2013

  Actual Average Record
Temperature  
Mean Temperature 46 °F -  
Max Temperature 52 °F 62 °F - ()
Min Temperature 41 °F 48 °F - ()
Degree Days  
Heating Degree Days 18    
Moisture  
Dew Point 39 °F    
Average Humidity 75    
Maximum Humidity 87    
Minimum Humidity 54    
Precipitation  
Precipitation 0.12 in 0.08 in - ()
Sea Level Pressure  
Sea Level Pressure 29.59 in    
Wind  
Wind Speed 12 mph ()    
Max Wind Speed 22 mph    
Max Gust Speed 38 mph    
Visibility 6.8 miles    
Events Rain    
T = Trace of Precipitation, MM = Missing Value Source: Averaged Metar Reports

Daily Weather History Graph

Daily Weather History Graph

Search for Another Location

Airport or City:

Trip Planner

Search our weather history database for the weather conditions in past years. The results will help you decide how hot, cold, wet, or windy it might be!

Date:

Astronomy

May. 15, 2013 Rise Set
Actual Time 5:38 AM IST 9:26 PM IST
Civil Twilight 4:55 AM IST 10:10 PM IST
Nautical Twilight 3:55 AM IST 11:11 PM IST
Astronomical Twilight 2:08 AM IST 1:06 AM IST
Moon 10:07 AM IST (5/15) 12:59 AM IST (5/15)
Length of Visible Light 17h 14m
Length of Day
15h 47m
Waxing Crescent, 25% of the Moon is Illuminated
May 15
Waxing Crescent
May 18
First Quarter
May 25
Full
May 31
Last Quarter
Jun 8
New

Hourly Weather History & Observations

Time (IST) Temp. Windchill Dew Point Humidity Pressure Visibility Wind Dir Wind Speed Gust Speed Precip Events Conditions
12:00 AM 46.4 °F 40.7 °F 39.2 °F 76% 29.53 in 6.2 mi NNW 12.7 mph - N/A   Scattered Clouds
12:30 AM 44.6 °F 38.4 °F 39.2 °F 81% 29.53 in 6.2 mi NNW 12.7 mph - N/A   Partly Cloudy
1:00 AM 44 °F - 40 °F 80% 29.55 in 12 mi NNW 13.4 mph - -   Partly Cloudy
1:00 AM 44.6 °F 38.4 °F 39.2 °F 81% 29.53 in 6.2 mi NNW 12.7 mph - N/A   Partly Cloudy
1:30 AM 44.6 °F 38.8 °F 39.2 °F 81% 29.53 in - NNW 11.5 mph - N/A   Clear
2:00 AM 42.8 °F 36.6 °F 39.2 °F 87% 29.53 in - NW 11.5 mph - N/A   Clear
2:30 AM 42.8 °F 37.0 °F 39.2 °F 87% 29.53 in 6.2 mi WNW 10.4 mph - N/A   Partly Cloudy
3:00 AM 42.8 °F 37.5 °F 39.2 °F 87% 29.56 in 6.2 mi WNW 9.2 mph - N/A   Partly Cloudy
3:30 AM 42.8 °F 38.0 °F 39.2 °F 87% 29.53 in 6.2 mi WNW 8.1 mph - N/A   Partly Cloudy
4:00 AM 42.8 °F 36.2 °F 39.2 °F 87% 29.56 in 6.2 mi WNW 12.7 mph - N/A   Partly Cloudy
4:30 AM 42.8 °F 37.5 °F 37.4 °F 81% 29.56 in 6.2 mi NW 9.2 mph - N/A   Partly Cloudy
5:00 AM 42.8 °F 36.6 °F 37.4 °F 81% 29.56 in 6.2 mi WNW 11.5 mph - N/A   Partly Cloudy
5:30 AM 41.0 °F 34.3 °F 37.4 °F 87% 29.56 in 6.2 mi WNW 11.5 mph - N/A   Partly Cloudy
6:00 AM 42.8 °F 36.6 °F 37.4 °F 81% 29.56 in 6.2 mi WNW 11.5 mph - N/A   Partly Cloudy
6:30 AM 44.6 °F 38.8 °F 39.2 °F 81% 29.56 in 6.2 mi WNW 11.5 mph - N/A   Mostly Cloudy
7:00 AM 45 °F - 40 °F 78% 29.59 in 11 mi NW 13.4 mph - - Rain Light Rain Showers
7:00 AM 44.6 °F 38.1 °F 41.0 °F 87% 29.56 in 6.2 mi NW 13.8 mph - N/A Rain Light Rain Showers
7:30 AM 44.6 °F 38.1 °F 41.0 °F 87% 29.59 in 6.2 mi NNW 13.8 mph - N/A   Mostly Cloudy
8:00 AM 46.4 °F 40.1 °F 39.2 °F 76% 29.59 in 6.2 mi NW 15.0 mph - N/A   Mostly Cloudy
8:30 AM 46.4 °F 42.4 °F 41.0 °F 81% 29.59 in 6.2 mi WNW 8.1 mph - N/A   Mostly Cloudy
9:00 AM 48.2 °F - 39.2 °F 71% 29.62 in 6.2 mi NW 11.5 mph - N/A   Mostly Cloudy
9:30 AM 46.4 °F 39.0 °F 41.0 °F 81% 29.62 in 6.2 mi NW 19.6 mph - N/A   Mostly Cloudy
10:00 AM 48.2 °F - 39.2 °F 71% 29.62 in 6.2 mi NW 17.3 mph - N/A Rain Light Rain Showers
10:30 AM 48.2 °F - 39.2 °F 71% 29.62 in 6.2 mi NNW 17.3 mph - N/A   Mostly Cloudy
11:00 AM 48.2 °F - 39.2 °F 71% 29.62 in 6.2 mi NW 15.0 mph - N/A   Scattered Clouds
11:30 AM 48.2 °F - 39.2 °F 71% 29.62 in 6.2 mi NNW 19.6 mph - N/A   Partly Cloudy
12:00 PM 44.6 °F 38.1 °F 41.0 °F 87% 29.62 in 6.2 mi WNW 13.8 mph - N/A   Scattered Clouds
12:30 PM 50.0 °F - 39.2 °F 66% 29.59 in 6.2 mi NNW 21.9 mph - N/A   Scattered Clouds
1:00 PM 51 °F - 40 °F 55% 29.62 in 12 mi NW 17.9 mph - - Rain Light Rain Showers
1:00 PM 50.0 °F - 39.2 °F 66% 29.62 in 6.2 mi NW 18.4 mph 38.0 mph N/A   Mostly Cloudy
1:30 PM 51.8 °F - 39.2 °F 62% 29.59 in 6.2 mi NW 20.7 mph - N/A   Scattered Clouds
2:00 PM 50.0 °F - 41.0 °F 71% 29.62 in 6.2 mi NNW 11.5 mph - N/A Rain Light Rain Showers
2:30 PM 46.4 °F 39.5 °F 41.0 °F 81% 29.62 in 6.2 mi NNW 17.3 mph - N/A Rain Light Rain Showers
3:00 PM 46.4 °F 39.5 °F 42.8 °F 87% 29.62 in 6.2 mi WNW 17.3 mph - N/A Rain Light Rain Showers
3:30 PM 48.2 °F - 41.0 °F 76% 29.62 in 5.6 mi NNW 12.7 mph - N/A Rain Light Rain Showers
4:00 PM 46.4 °F 42.4 °F 42.8 °F 87% 29.62 in 6.2 mi NNW 8.1 mph - N/A   Mostly Cloudy
4:30 PM 48.2 °F - 39.2 °F 71% 29.62 in 6.2 mi North 11.5 mph - N/A   Mostly Cloudy
5:00 PM 50.0 °F - 37.4 °F 62% 29.59 in 6.2 mi NW 10.4 mph - N/A   Mostly Cloudy
5:30 PM 51.8 °F - 35.6 °F 54% 29.59 in 6.2 mi NNW 13.8 mph - N/A   Scattered Clouds
6:00 PM 50.0 °F - 33.8 °F 54% 29.59 in 6.2 mi WNW 17.3 mph - N/A   Scattered Clouds
6:30 PM 50.0 °F - 35.6 °F 58% 29.62 in 6.2 mi WNW 16.1 mph - N/A   Mostly Cloudy
7:00 PM 48 °F - 37 °F 56% 29.62 in 19 mi WNW 15.7 mph - -   Partly Cloudy
7:00 PM 48.2 °F - 37.4 °F 66% 29.59 in 6.2 mi WNW 16.1 mph - N/A   Mostly Cloudy
7:30 PM 48.2 °F - 35.6 °F 62% 29.59 in 6.2 mi West 15.0 mph - N/A   Mostly Cloudy
8:00 PM 48.2 °F - 37.4 °F 66% 29.59 in 6.2 mi WNW 15.0 mph - N/A   Mostly Cloudy
8:30 PM 46.4 °F 40.1 °F 37.4 °F 71% 29.59 in 6.2 mi West 15.0 mph - N/A   Mostly Cloudy
9:00 PM 46.4 °F 40.7 °F 37.4 °F 71% 29.59 in 6.2 mi WNW 12.7 mph - N/A   Mostly Cloudy
9:30 PM 44.6 °F 37.4 °F 39.2 °F 81% 29.62 in 6.2 mi West 16.1 mph - N/A Rain Light Rain Showers
10:00 PM 44.6 °F 40.7 °F 37.4 °F 76% 29.59 in 6.2 mi West 6.9 mph - N/A   Mostly Cloudy
10:30 PM 44.6 °F 40.7 °F 39.2 °F 81% 29.59 in 6.2 mi West 6.9 mph - N/A   Mostly Cloudy
11:00 PM 44.6 °F 40.2 °F 39.2 °F 81% 29.59 in 6.2 mi West 8.1 mph - N/A   Mostly Cloudy
11:30 PM 44.6 °F 42.2 °F 39.2 °F 81% 29.59 in 6.2 mi WSW 4.6 mph - N/A   Mostly Cloudy